Location: Penum?ka
(16.4840°N, 80.5772°E)
Time: 02:08:16
(UTC+00:00)

CZ-4 R/B - Pass Details

Date: 19 May 2025
Orbit: 677 x 744 km, 98.7° (Epoch: 24 June)

Event Time Altitude Azimuth Distance (km) Brightness Sun altitude
Rises 22:32:33 0° 17° (NNE) 3,099 7.9 -21.1°
Reaches altitude 10° 22:34:49 10° 21° (NNE) 2,190 7.1 -20.6°
Maximum altitude 22:39:34 62° 102° (ESE) 811 4.3 -19.6°
Enters shadow 22:44:01 12° 182° (S) 2,075 6.0 -18.7°
